Regional Weather Roundup
Issued by NWS

Home | Current Version | Previous Version | Text Only | Print | Product List | Glossary On
Versions: 1 2 3 4 5 6 7 8 9 10 11 12 13 14 15 16 17 18 19 20 21 22 23 24 25 26 27 28 29 30 31 32 33 34 35 36 37 38 39 40 41 42 43 44 45 46 47 48 49 50
000
ASUS43 KFSD 152210
RWRSD

WEATHER ROUNDUP FOR SOUTH DAKOTA
NATIONAL WEATHER SERVICE SIOUX FALLS SD
400 PM CST MON JAN 15 2018

NOTE: "FAIR" INDICATES FEW OR NO CLOUDS BELOW 12,000 FEET WITH NO
SIGNIFICANT WEATHER AND/OR OBSTRUCTIONS TO VISIBILITY.


SDZ001>005-009-010-012>017-152300-
NORTHWEST AND NORTH CENTRAL SOUTH DAKOTA

CITY           SKY/WX    TMP DP  RH WIND       PRES   REMARKS
BUFFALO          N/A     -3 -12  65 NW12      30.64S WCI -21
FAITH            N/A     -2 -11  65 N17       30.70R WCI -23
MOBRIDGE       SUNNY      0 -13  54 N22G32    30.71R WCI -23
$$

SDZ012>016-024>037-041>051-057-063-072>074-152300-
SOUTHWEST AND SOUTH CENTRAL SOUTH DAKOTA

CITY           SKY/WX    TMP DP  RH WIND       PRES   REMARKS
RAPID CTY ARPT SUNNY      3  -6  66 N28       30.66S WCI -21
PIERRE         SUNNY      3 -10  54 NW30      30.71R WCI -22
CUSTER         SUNNY      9  -9  44 NE3       30.39R
ELLSWORTH AFB  SUNNY      3  -6  64 N23       30.65R WCI -19
PHILIP         SUNNY      4  -6  63 NW21G26   30.74R WCI -17
PINE RIDGE     SUNNY      6  -5  60 N15       30.64R WCI -12
SPEARFISH        N/A      0  -8  71 NW10G16   30.63R WCI -17
WINNER         FAIR       5  -7  57 NW28G40   30.65R WCI -18
$$

SDZ004>011-016>023-039-040-152300-
NORTHEAST SOUTH DAKOTA

CITY           SKY/WX    TMP DP  RH WIND       PRES   REMARKS
ABERDEEN       PTCLDY    -2 -11  65 N24G30    30.72R WCI -26
WATERTOWN      PTCLDY    -7 -14  71 NW23      30.56R WCI -33
BROOKINGS      CLOUDY    -6 -14  68 NW23G30     N/A  WCI -31
SISSETON         N/A     -7 -14  71 N24G31    30.65R WCI -33
$$

SDZ017-020-022-023-036>040-048>070-152300-
SOUTHEAST SOUTH DAKOTA

CITY           SKY/WX    TMP DP  RH WIND       PRES   REMARKS
SIOUX FALLS    MOSUNNY   -2 -11  65 NW23      30.57S WCI -26
HURON          PTSUNNY   -2  -9  72 N17G25    30.69R HAZE    WCI -23
CHAMBERLAIN    CLOUDY     4  -7  62 NW21G28   30.69R WCI -17
MITCHELL       PTSUNNY    0  -9  65 N24G30    30.69R WCI -24
YANKTON        MOSUNNY   -1  -9  68 NW24      30.65R WCI -25
$$

ABBREVIATIONS USED IN REMARKS
   TC - TEMPERATURE IN CELSIUS
  WCI - WIND CHILL INDEX
   HX - HEAT INDEX
  VSB - VISIBILITY





USA.gov is the U.S. government's official web portal to all federal, state and local government web resources and services.